Time,TemperatureF,DewpointF,PressureIn,WindDirection,WindDirectionDegrees,WindSpeedMPH,WindSpeedGustMPH,Humidity,HourlyPrecipIn,Conditions,Clouds,dailyrainin,SoftwareType,DateUTC
2013-01-01 00:04:00,27.8,24.0,29.80,North,355,11.0,16.0,86,0.00,,,0.04,weatherlink.com 1.10,2013-01-01 05:04:00,
2013-01-01 00:20:00,28.0,24.0,29.81,NNW,334,6.0,14.0,85,0.00,,,0.04,weatherlink.com 1.10,2013-01-01 05:20:00,
2013-01-01 00:34:00,28.2,24.0,29.81,WNW,298,13.0,15.0,85,0.00,,,0.04,weatherlink.com 1.10,2013-01-01 05:34:00,
2013-01-01 00:49:00,28.1,25.0,29.81,NNW,342,9.0,17.0,87,0.00,,,0.04,weatherlink.com 1.10,2013-01-01 05:49:00,
2013-01-01 01:04:00,28.1,25.0,29.81,WSW,253,7.0,20.0,87,0.00,,,0.04,weatherlink.com 1.10,2013-01-01 06:04:00,
2013-01-01 01:20:00,28.1,25.0,29.81,NNW,342,9.0,17.0,88,0.00,,,0.04,weatherlink.com 1.10,2013-01-01 06:20:00,
2013-01-01 01:35:00,28.0,25.0,29.80,NNW,338,9.0,16.0,88,0.00,,,0.04,weatherlink.com 1.10,2013-01-01 06:35:00,
2013-01-01 01:51:00,28.0,25.0,29.80,NW,325,3.0,15.0,88,0.00,,,0.04,weatherlink.com 1.10,2013-01-01 06:51:00,
2013-01-01 02:05:00,28.0,25.0,29.80,WNW,296,3.0,15.0,88,0.00,,,0.04,weatherlink.com 1.10,2013-01-01 07:05:00,
2013-01-01 02:20:00,28.0,25.0,29.79,NW,309,5.0,14.0,88,0.00,,,0.04,weatherlink.com 1.10,2013-01-01 07:20:00,
2013-01-01 02:35:00,28.0,25.0,29.79,NNW,345,4.0,17.0,89,0.00,,,0.04,weatherlink.com 1.10,2013-01-01 07:35:00,
2013-01-01 02:50:00,28.1,25.0,29.79,NNW,332,11.0,16.0,88,0.00,,,0.04,weatherlink.com 1.10,2013-01-01 07:50:00,
2013-01-01 03:05:00,28.2,25.0,29.80,NNW,330,10.0,18.0,88,0.00,,,0.04,weatherlink.com 1.10,2013-01-01 08:05:00,
2013-01-01 03:20:00,28.3,25.0,29.80,NNW,348,7.0,21.0,87,0.00,,,0.04,weatherlink.com 1.10,2013-01-01 08:20:00,
2013-01-01 03:35:00,28.3,25.0,29.80,NW,324,10.0,17.0,87,0.00,,,0.04,weatherlink.com 1.10,2013-01-01 08:35:00,
2013-01-01 03:51:00,28.3,25.0,29.80,NW,325,9.0,18.0,86,0.00,,,0.04,weatherlink.com 1.10,2013-01-01 08:51:00,
2013-01-01 04:06:00,28.3,25.0,29.80,NNW,344,11.0,16.0,86,0.00,,,0.04,weatherlink.com 1.10,2013-01-01 09:06:00,
2013-01-01 04:21:00,28.2,24.0,29.80,WNW,303,18.0,21.0,85,0.00,,,0.04,weatherlink.com 1.10,2013-01-01 09:21:00,
2013-01-01 04:36:00,28.2,23.0,29.80,WSW,255,11.0,18.0,82,0.00,,,0.04,weatherlink.com 1.10,2013-01-01 09:36:00,
2013-01-01 04:51:00,28.0,23.0,29.80,North,355,12.0,19.0,81,0.00,,,0.04,weatherlink.com 1.10,2013-01-01 09:51:00,
2013-01-01 05:06:00,27.9,23.0,29.80,NNW,330,11.0,16.0,82,0.00,,,0.04,weatherlink.com 1.10,2013-01-01 10:06:00,
2013-01-01 05:22:00,27.8,23.0,29.80,NW,305,11.0,17.0,82,0.00,,,0.00,weatherlink.com 1.10,2013-01-01 10:22:00,
2013-01-01 05:36:00,27.7,23.0,29.81,WSW,238,9.0,15.0,82,0.00,,,0.00,weatherlink.com 1.10,2013-01-01 10:36:00,
2013-01-01 05:51:00,27.6,23.0,29.81,NNW,341,11.0,16.0,81,0.00,,,0.00,weatherlink.com 1.10,2013-01-01 10:51:00,
2013-01-01 06:06:00,27.4,23.0,29.82,NNW,337,12.0,18.0,82,0.00,,,0.00,weatherlink.com 1.10,2013-01-01 11:06:00,
2013-01-01 06:22:00,27.1,22.0,29.82,North,355,6.0,18.0,82,0.00,,,0.00,weatherlink.com 1.10,2013-01-01 11:22:00,
2013-01-01 06:38:00,26.9,22.0,29.83,NW,306,3.0,14.0,83,0.00,,,0.00,weatherlink.com 1.10,2013-01-01 11:38:00,
2013-01-01 07:01:00,26.4,23.0,29.82,NW,325,6.0,13.0,86,0.00,,,0.00,weatherlink.com 1.10,2013-01-01 12:01:00,
2013-01-01 07:07:00,26.3,23.0,29.82,NNW,344,10.0,14.0,86,0.00,,,0.00,weatherlink.com 1.10,2013-01-01 12:07:00,
2013-01-01 07:22:00,26.3,23.0,29.83,NNW,333,8.0,14.0,86,0.00,,,0.00,weatherlink.com 1.10,2013-01-01 12:22:00,
2013-01-01 07:37:00,26.5,22.0,29.83,NW,317,9.0,16.0,83,0.00,,,0.00,weatherlink.com 1.10,2013-01-01 12:37:00,
2013-01-01 07:52:00,26.4,21.0,29.82,NNW,340,7.0,18.0,81,0.00,,,0.00,weatherlink.com 1.10,2013-01-01 12:52:00,
2013-01-01 08:08:00,26.3,21.0,29.82,North,360,4.0,15.0,81,0.00,,,0.00,weatherlink.com 1.10,2013-01-01 13:08:00,
2013-01-01 08:23:00,26.2,21.0,29.83,NW,317,8.0,17.0,79,0.00,,,0.00,weatherlink.com 1.10,2013-01-01 13:23:00,
2013-01-01 08:38:00,26.2,20.0,29.84,WNW,297,5.0,15.0,78,0.00,,,0.00,weatherlink.com 1.10,2013-01-01 13:38:00,
2013-01-01 08:53:00,26.0,20.0,29.84,NW,323,8.0,17.0,77,0.00,,,0.00,weatherlink.com 1.10,2013-01-01 13:53:00,
2013-01-01 09:09:00,25.6,19.0,29.84,NNW,327,11.0,17.0,77,0.00,,,0.00,weatherlink.com 1.10,2013-01-01 14:09:00,
2013-01-01 09:23:00,25.4,19.0,29.85,NW,309,8.0,20.0,78,0.00,,,0.00,weatherlink.com 1.10,2013-01-01 14:23:00,
2013-01-01 09:39:00,24.9,20.0,29.86,WNW,302,9.0,28.0,80,0.00,,,0.00,weatherlink.com 1.10,2013-01-01 14:39:00,
2013-01-01 09:53:00,24.8,19.0,29.86,NNW,327,6.0,17.0,79,0.00,,,0.00,weatherlink.com 1.10,2013-01-01 14:53:00,
2013-01-01 10:09:00,24.7,20.0,29.85,NNW,333,5.0,15.0,81,0.00,,,0.00,weatherlink.com 1.10,2013-01-01 15:09:00,
2013-01-01 10:24:00,24.8,19.0,29.85,WNW,283,10.0,18.0,79,0.00,,,0.00,weatherlink.com 1.10,2013-01-01 15:24:00,
2013-01-01 10:39:00,24.5,19.0,29.85,NNW,329,12.0,20.0,78,0.00,,,0.00,weatherlink.com 1.10,2013-01-01 15:39:00,
2013-01-01 10:54:00,24.5,19.0,29.85,NNW,331,6.0,17.0,78,0.00,,,0.00,weatherlink.com 1.10,2013-01-01 15:54:00,
2013-01-01 11:09:00,24.6,18.0,29.85,NNW,329,7.0,16.0,77,0.00,,,0.00,weatherlink.com 1.10,2013-01-01 16:09:00,
2013-01-01 11:25:00,24.7,18.0,29.84,NW,326,1.0,18.0,76,0.00,,,0.00,weatherlink.com 1.10,2013-01-01 16:25:00,
2013-01-01 11:39:00,24.7,18.0,29.84,WNW,287,14.0,19.0,75,0.00,,,0.00,weatherlink.com 1.10,2013-01-01 16:39:00,
2013-01-01 11:54:00,24.7,17.0,29.82,NW,305,7.0,22.0,72,0.00,,,0.00,weatherlink.com 1.10,2013-01-01 16:54:00,
2013-01-01 12:10:00,24.8,16.0,29.82,NNW,329,16.0,21.0,69,0.00,,,0.00,weatherlink.com 1.10,2013-01-01 17:10:00,
2013-01-01 12:25:00,24.6,16.0,29.82,WNW,303,12.0,21.0,71,0.00,,,0.00,weatherlink.com 1.10,2013-01-01 17:25:00,
2013-01-01 12:40:00,24.7,16.0,29.82,NW,314,4.0,23.0,69,0.00,,,0.00,weatherlink.com 1.10,2013-01-01 17:40:00,
2013-01-01 12:55:00,24.7,16.0,29.81,NW,306,5.0,18.0,70,0.00,,,0.00,weatherlink.com 1.10,2013-01-01 17:55:00,
2013-01-01 13:10:00,24.0,17.0,29.82,WNW,288,12.0,24.0,74,0.00,,,0.00,weatherlink.com 1.10,2013-01-01 18:10:00,
2013-01-01 13:25:00,23.5,18.0,29.82,NW,316,15.0,18.0,78,0.00,,,0.00,weatherlink.com 1.10,2013-01-01 18:25:00,
2013-01-01 13:40:00,23.2,19.0,29.82,West,281,6.0,15.0,82,0.00,,,0.00,weatherlink.com 1.10,2013-01-01 18:40:00,
2013-01-01 13:55:00,22.7,19.0,29.82,North,349,9.0,15.0,85,0.00,,,0.00,weatherlink.com 1.10,2013-01-01 18:55:00,
2013-01-01 14:10:00,21.6,18.0,29.82,NW,309,10.0,16.0,84,0.00,,,0.00,weatherlink.com 1.10,2013-01-01 19:10:00,
2013-01-01 14:28:00,20.9,16.0,29.82,WNW,288,7.0,17.0,80,0.00,,,0.00,weatherlink.com 1.10,2013-01-01 19:28:00,
2013-01-01 14:41:00,20.7,15.0,29.82,NW,309,9.0,17.0,77,0.00,,,0.00,weatherlink.com 1.10,2013-01-01 19:41:00,
2013-01-01 14:56:00,20.8,14.0,29.83,SW,228,5.0,18.0,76,0.00,,,0.00,weatherlink.com 1.10,2013-01-01 19:56:00,
2013-01-01 15:11:00,20.7,15.0,29.85,NNW,348,7.0,17.0,77,0.00,,,0.00,weatherlink.com 1.10,2013-01-01 20:11:00,
2013-01-01 15:26:00,20.6,14.0,29.86,NNW,338,8.0,17.0,76,0.00,,,0.00,weatherlink.com 1.10,2013-01-01 20:26:00,
2013-01-01 15:41:00,20.4,14.0,29.86,NW,312,13.0,21.0,77,0.00,,,0.00,weatherlink.com 1.10,2013-01-01 20:41:00,
2013-01-01 15:56:00,20.1,14.0,29.86,NNW,339,11.0,16.0,76,0.00,,,0.00,weatherlink.com 1.10,2013-01-01 20:56:00,
2013-01-01 16:11:00,19.9,14.0,29.86,North,355,8.0,13.0,76,0.00,,,0.00,weatherlink.com 1.10,2013-01-01 21:11:00,
2013-01-01 16:27:00,19.6,14.0,29.88,West,269,9.0,15.0,77,0.00,,,0.00,weatherlink.com 1.10,2013-01-01 21:27:00,
2013-01-01 16:42:00,18.8,14.0,29.88,North,355,10.0,14.0,81,0.00,,,0.00,weatherlink.com 1.10,2013-01-01 21:42:00,
2013-01-01 16:57:00,18.2,14.0,29.88,NW,315,9.0,15.0,84,0.00,,,0.00,weatherlink.com 1.10,2013-01-01 21:57:00,
2013-01-01 17:12:00,18.0,13.0,29.89,WNW,297,5.0,11.0,82,0.00,,,0.00,weatherlink.com 1.10,2013-01-01 22:12:00,
2013-01-01 17:27:00,17.9,13.0,29.91,NW,323,9.0,12.0,81,0.00,,,0.00,weatherlink.com 1.10,2013-01-01 22:27:00,
2013-01-01 17:42:00,17.5,12.0,29.91,NW,325,12.0,13.0,80,0.00,,,0.00,weatherlink.com 1.10,2013-01-01 22:42:00,
2013-01-01 17:57:00,16.8,11.0,29.93,NW,313,8.0,17.0,77,0.00,,,0.00,weatherlink.com 1.10,2013-01-01 22:57:00,
2013-01-01 18:12:00,16.1,10.0,29.94,SW,215,14.0,18.0,77,0.00,,,0.00,weatherlink.com 1.10,2013-01-01 23:12:00,
2013-01-01 18:28:00,15.8,10.0,29.95,NW,306,7.0,15.0,76,0.00,,,0.00,weatherlink.com 1.10,2013-01-01 23:28:00,
2013-01-01 18:43:00,15.4,9.0,29.95,NNW,331,4.0,15.0,76,0.00,,,0.00,weatherlink.com 1.10,2013-01-01 23:43:00,
2013-01-01 18:58:00,15.0,9.0,29.95,NW,313,12.0,14.0,76,0.00,,,0.00,weatherlink.com 1.10,2013-01-01 23:58:00,
2013-01-01 19:13:00,14.8,9.0,29.96,WNW,290,11.0,17.0,77,0.00,,,0.00,weatherlink.com 1.10,2013-01-02 00:13:00,
2013-01-01 19:28:00,14.5,9.0,29.96,NW,311,8.0,10.0,78,0.00,,,0.00,weatherlink.com 1.10,2013-01-02 00:28:00,
2013-01-01 19:43:00,13.9,9.0,29.96,NW,312,5.0,11.0,79,0.00,,,0.00,weatherlink.com 1.10,2013-01-02 00:43:00,
2013-01-01 19:59:00,13.5,8.0,29.95,NW,306,5.0,11.0,80,0.00,,,0.00,weatherlink.com 1.10,2013-01-02 00:59:00,
2013-01-01 20:13:00,13.0,8.0,29.95,WNW,297,4.0,7.0,80,0.00,,,0.00,weatherlink.com 1.10,2013-01-02 01:13:00,
2013-01-01 20:29:00,12.5,8.0,29.95,WNW,296,3.0,6.0,81,0.00,,,0.00,weatherlink.com 1.10,2013-01-02 01:29:00,
2013-01-01 20:44:00,12.0,8.0,29.95,NNW,342,3.0,8.0,83,0.00,,,0.00,weatherlink.com 1.10,2013-01-02 01:44:00,
2013-01-01 21:00:00,10.8,7.0,29.95,NW,314,3.0,6.0,83,0.00,,,0.00,weatherlink.com 1.10,2013-01-02 02:00:00,
2013-01-01 21:14:00,10.3,7.0,29.95,NNW,331,2.0,6.0,85,0.00,,,0.00,weatherlink.com 1.10,2013-01-02 02:14:00,
2013-01-01 21:29:00,10.2,7.0,29.96,NW,323,4.0,6.0,85,0.00,,,0.00,weatherlink.com 1.10,2013-01-02 02:29:00,
2013-01-01 21:44:00,9.6,6.0,29.95,NW,323,2.0,5.0,86,0.00,,,0.00,weatherlink.com 1.10,2013-01-02 02:44:00,
2013-01-01 21:59:00,9.6,6.0,29.96,NNW,333,4.0,7.0,85,0.00,,,0.00,weatherlink.com 1.10,2013-01-02 02:59:00,
2013-01-01 22:14:00,9.6,6.0,29.96,NW,326,2.0,4.0,85,0.00,,,0.00,weatherlink.com 1.10,2013-01-02 03:14:00,
2013-01-01 22:30:00,8.5,5.0,29.97,NW,326,2.0,4.0,85,0.00,,,0.00,weatherlink.com 1.10,2013-01-02 03:30:00,
2013-01-01 22:45:00,8.4,5.0,29.97,NW,326,2.0,6.0,87,0.00,,,0.00,weatherlink.com 1.10,2013-01-02 03:45:00,
2013-01-01 23:00:00,8.2,5.0,29.98,NW,326,3.0,5.0,87,0.00,,,0.00,weatherlink.com 1.10,2013-01-02 04:00:00,
2013-01-01 23:15:00,8.7,5.0,29.98,WNW,298,2.0,4.0,86,0.00,,,0.00,weatherlink.com 1.10,2013-01-02 04:15:00,
2013-01-01 23:30:00,8.8,6.0,29.98,WNW,298,0.0,4.0,86,0.00,,,0.00,weatherlink.com 1.10,2013-01-02 04:30:00,
2013-01-01 23:45:00,9.1,6.0,29.98,WNW,298,1.0,4.0,86,0.00,,,0.00,weatherlink.com 1.10,2013-01-02 04:45:00,